RH
11 16 22 22 17 14 12 57 19 95 94 90 98 94 97 72 32 22 20 19 16 13 11 12 12 12 14 17 19 19 17 16 19 28 39 38 21 37
11 14 19 27 25 18 14 11 7 21 95 89 97 93 98 90 47 38 22 22 19 17 16 16 16 16 16 17 18 19 17 19 24 32 40 39 34 44
6 9 17 23 32 26 18 14 12 7 70 85 83 91 78 97 95 92 48 32 22 20 18 17 17 17 17 18 19 19 19 23 30 38 44 42 34 42
5 6 8 20 26 32 24 18 15 12 9 25 16 76 68 96 98 100 94 71 44 26 22 19 18 18 18 19 20 20 23 31 40 41 54 47 32 38
6 6 6 12 22 31 33 23 19 16 13 8 7 45 96 97 97 99 96 93 96 60 27 24 22 22 22 23 22 24 32 44 46 58 52 30 26 30
11 8 7 8 18 33 38 33 23 19 18 14 9 11 43 96 98 98 96 93 97 94 89 57 28 26 26 26 30 33 41 66 74 59 52 50 46 30
20 13 10 7 9 26 41 42 32 23 20 18 14 7 15 44 94 99 97 98 97 96 99 96 75 38 31 34 38 51 66 91 74 70 86 85 85 82
19 21 14 10 8 14 35 47 46 31 24 22 17 13 7 11 17 70 95 98 95 96 97 98 96 84 51 43 56 69 82 85 80 81 90 94 92 83
13 18 20 14 11 10 29 47 51 45 29 28 20 17 14 12 14 29 93 98 94 99 98 98 97 96 96 86 85 88 95 92 92 90 86 91 83 79
14 13 17 18 15 13 12 38 50 52 41 30 25 20 19 18 19 31 99 91 99 97 99 96 98 98 98 98 95 88 92 96 87 79 79 84 85 87
60 23 13 16 18 16 12 12 46 52 48 39 31 25 23 22 19 21 92 60 74 79 96 100 95 97 97 97 100 98 96 85 79 79 98 99 100 98
82 61 38 13 15 17 16 13 13 50 62 49 38 30 28 26 24 20 14 35 40 77 89 99 96 98 96 98 97 98 94 94 92 97 96 91 98 96
86 88 74 51 15 14 16 15 10 16 62 62 46 38 29 29 28 23 18 14 23 46 73 81 94 97 96 96 98 98 97 98 98 97 89 83 96 97
83 89 92 92 64 23 13 15 12 11 19 65 54 43 35 29 27 28 22 16 13 60 82 87 70 91 96 98 99 98 98 97 96 84 98 89 93 87
94 93 94 93 92 73 28 12 13 11 10 23 61 48 40 33 31 35 28 22 13 15 78 41 22 76 98 97 97 98 97 96 97 78 88 98 93 86
95 86 82 89 97 98 83 30 10 11 9 8 29 49 46 40 37 30 32 25 21 15 21 21 11 67 96 97 99 86 71 54 29 27 47 54 67 86
100 100 100 100 100 76 72 47 13 8 8 6 6 34 48 44 38 35 29 29 26 20 15 13 9 17 96 90 71 79 84 86 18 28 32 70 95 89
93 98 100 100 96 69 50 59 58 15 7 7 5 6 33 48 41 37 34 29 28 23 20 19 13 12 16 26 24 45 79 51 23 75 100 86 80 97
94 90 96 89 89 82 76 62 60 56 17 6 6 5 5 34 46 41 37 32 32 29 25 20 18 19 18 13 12 11 13 15 37 80 91 81 57 94
100 100 100 100 100 100 100 100 90 74 56 10 5 4 4 6 34 44 43 38 34 34 32 26 22 21 18 15 15 15 19 37 99 89 76 66 93 98
100 100 100 100 99 93 96 93 100 100 77 62 10 5 4 4 13 37 45 42 35 34 34 31 25 22 21 21 20 30 67 83 72 97 75 86 84 51
100 100 100 100 100 96 100 100 94 94 100 87 44 6 5 4 4 20 37 44 33 31 31 31 32 29 24 21 42 96 95 75 100 93 88 79 61 61
100 100 100 100 100 100 95 98 100 61 87 100 83 24 5 4 5 6 19 38 36 33 30 31 32 32 26 22 93 100 100 67 65 78 52 67 45 59
Wind_Speed
120 113 107 103 97 96 95 92 85 72 71 64 58 56 63 74 68 66 61 61 58 55 53 51 50 48 47 44 43 42 40 40 37 35 36 33 31 31
125 122 115 108 104 101 97 95 93 86 69 68 59 60 58 70 72 68 66 62 63 59 56 54 53 50 49 47 45 44 43 41 40 38 37 33 32 30
125 125 120 116 109 106 103 99 97 96 92 84 68 67 72 65 75 75 73 67 65 63 60 58 55 54 52 49 47 46 45 43 43 39 38 34 34 35
115 122 123 119 117 110 107 103 101 99 101 103 83 76 75 61 64 75 81 75 67 66 65 61 57 55 53 52 50 48 46 46 43 41 39 38 36 38
103 109 117 120 120 117 111 108 105 103 101 101 87 85 77 67 56 64 73 80 83 72 67 65 60 55 54 53 52 50 48 47 44 42 40 37 37 39
91 102 109 117 119 118 116 111 109 107 103 102 94 89 88 69 58 55 55 71 75 81 76 69 62 58 57 54 51 51 49 47 44 44 39 38 40 39
84 89 101 111 117 119 118 114 112 110 107 103 97 95 96 92 88 71 60 61 62 72 76 75 68 60 58 57 55 52 50 47 45 45 43 46 44 45
77 80 88 102 112 118 118 116 114 112 109 106 102 100 98 94 80 82 76 64 58 62 71 72 75 70 64 62 57 55 55 54 50 53 52 47 49 49
64 74 79 87 102 114 118 117 115 114 112 109 105 101 100 93 88 79 78 73 56 63 63 65 77 76 74 68 67 64 58 57 55 54 53 54 54 51
54 62 72 80 88 101 115 117 117 115 114 112 109 104 102 97 89 77 75 88 66 58 59 68 64 72 74 71 69 68 66 61 54 55 57 58 55 55
48 53 62 72 79 87 101 116 116 117 115 115 112 109 106 102 95 85 75 86 89 86 62 48 58 64 60 71 69 68 59 55 55 55 50 50 55 53
43 48 51 61 73 82 90 103 119 115 115 116 116 113 110 106 100 94 91 90 86 88 83 70 53 58 57 45 50 51 54 53 54 51 45 46 47 47
42 42 46 52 61 76 84 91 106 116 117 118 119 117 115 111 106 98 94 92 88 89 93 74 62 57 56 59 50 49 51 53 51 51 50 49 47 46
38 40 43 48 53 62 78 86 92 106 118 119 121 120 118 113 107 102 98 96 92 78 81 74 68 66 58 56 56 56 51 51 52 41 37 41 42 40
39 40 42 46 51 57 65 78 87 96 109 122 122 121 118 113 111 106 100 98 97 93 89 77 70 68 61 51 55 50 53 51 43 40 45 38 43 47
40 40 42 45 50 56 62 71 84 92 101 117 123 121 119 118 114 109 104 100 99 96 95 87 78 72 62 64 55 55 59 54 48 50 50 50 47 55
34 39 44 46 55 58 60 63 73 85 95 105 119 124 123 121 117 110 106 103 101 97 95 90 84 80 75 65 64 63 63 59 52 50 49 49 50 49
29 33 33 46 61 61 52 56 62 73 87 95 106 120 126 123 119 114 108 106 102 98 95 93 90 85 79 74 68 67 68 64 50 49 50 54 50 51
39 38 33 36 46 49 48 48 55 63 72 88 97 109 121 126 122 118 113 109 103 98 96 93 91 81 78 77 70 68 65 57 53 52 50 52 51 52
40 43 39 31 28 28 33 38 44 56 64 74 87 98 112 125 128 123 117 112 106 100 96 93 91 82 79 75 69 64 60 54 55 53 51 52 49 45
38 39 31 24 24 24 27 31 37 43 53 60 76 90 102 116 128 126 119 115 109 104 98 92 84 78 75 70 68 64 60 60 57 53 48 45 47 47
35 35 26 24 24 32 36 38 34 43 48 55 61 83 93 105 119 128 123 118 112 105 96 88 85 81 75 69 64 64 64 63 60 58 52 51 50 51
31 30 26 27 25 25 25 30 34 32 49 49 57 66 87 96 102 119 122 119 112 106 98 87 84 80 78 69 69 74 68 67 62 59 56 58 54 53
Wind_Direction
246 246 245 243 239 238 238 239 241 242 241 244 239 250 246 234 241 241 239 242 242 242 242 243 244 243 243 244 248 250 253 256 260 264 268 272 271 273
245 245 244 242 241 239 237 238 239 238 233 238 237 241 249 239 234 239 241 240 242 240 239 240 242 242 243 243 246 249 251 253 258 262 265 269 269 268
246 244 243 242 240 239 237 236 236 237 234 240 237 243 250 246 241 235 239 240 242 242 241 239 240 242 242 243 244 246 249 252 256 261 264 264 265 265
244 243 242 240 240 238 237 235 235 236 236 239 240 237 240 238 237 237 239 236 237 242 242 241 239 240 242 243 244 245 248 251 256 260 262 266 266 268
242 240 239 238 238 238 236 235 234 234 236 238 236 235 233 233 235 234 236 240 240 236 240 239 238 238 240 242 244 245 247 251 255 259 262 264 266 269
242 238 235 235 235 235 236 234 234 234 234 236 234 234 234 230 232 234 241 238 240 239 236 239 239 237 236 238 240 244 247 250 254 258 258 263 266 267
243 240 236 233 233 234 233 234 233 233 233 233 233 231 234 238 232 236 241 244 245 243 241 235 236 237 238 239 240 241 245 250 252 255 259 262 266 269
243 241 238 235 231 231 232 232 232 231 232 232 231 232 232 237 241 245 242 245 245 237 242 238 236 236 237 240 238 243 248 245 247 253 257 262 267 272
247 242 238 236 234 230 229 230 230 230 230 231 230 230 233 235 234 235 235 240 243 238 237 237 234 236 236 237 242 244 240 243 249 254 258 261 268 268
249 243 239 236 235 234 230 228 229 228 229 230 230 228 231 234 233 229 231 237 237 243 237 236 238 238 240 240 241 242 243 247 249 254 260 262 265 267
257 249 242 236 234 235 234 230 227 227 227 228 228 227 229 230 231 224 225 233 231 241 233 232 236 233 240 237 234 245 243 243 245 252 264 265 263 264
258 254 251 242 233 234 234 233 227 225 225 225 226 226 227 229 229 228 226 229 230 235 236 243 238 234 241 235 238 241 242 245 249 254 255 265 258 250
262 259 255 251 241 234 236 233 231 224 224 224 224 224 225 227 229 227 227 228 230 230 238 242 237 234 238 243 239 244 245 246 242 249 262 263 247 245
266 260 255 253 250 243 236 235 232 231 225 223 223 222 224 225 226 228 227 227 228 231 235 236 237 239 246 237 235 244 243 234 240 255 254 250 243 249
271 265 260 255 251 250 244 238 235 231 230 223 222 221 222 224 225 226 225 225 226 227 230 232 232 237 236 232 234 231 238 245 252 253 259 254 258 263
275 273 267 262 256 252 248 243 236 233 231 228 221 222 220 222 223 224 225 224 225 227 229 231 230 230 224 232 237 241 247 252 259 261 261 264 265 260
262 265 265 262 260 258 251 247 241 235 233 229 225 219 220 220 221 223 225 224 225 225 227 229 230 231 226 230 236 242 247 252 255 257 260 260 255 254
291 301 287 264 258 265 261 250 244 239 233 231 226 221 218 219 219 221 223 225 224 224 225 228 229 232 234 236 236 239 243 251 252 249 250 255 249 258
307 311 309 275 265 265 264 255 245 241 237 229 227 223 218 217 218 218 220 224 225 224 224 226 229 229 233 237 236 239 244 247 242 246 246 250 247 257
312 316 314 296 286 269 266 257 249 241 238 233 225 223 220 214 216 217 218 221 223 224 225 225 229 229 233 237 240 243 243 238 242 241 245 250 248 249
315 317 315 298 291 276 259 260 249 243 238 235 228 220 220 217 212 215 216 218 220 223 224 224 227 229 231 234 236 240 235 232 238 237 239 245 248 254
318 320 323 308 284 278 270 258 264 246 240 235 231 223 217 218 213 211 213 215 217 220 222 222 223 224 227 230 231 230 229 231 233 235 241 249 256 264
320 328 335 317 285 271 279 260 255 264 236 232 228 226 218 216 216 210 207 212 213 216 218 217 219 220 223 225 228 223 224 231 237 242 248 253 259 257